Weather History for Sauk Centre, MN

Change the Weather History Date:

Sunday, October 27, 2013

  Actual Average (KGHW) Record (KGHW)
Temperature  
Mean Temperature 40 °F -  
Max Temperature 54 °F 56 °F 78 °F (1983)
Min Temperature 26 °F 33 °F 14 °F (1951)
Degree Days  
Heating Degree Days 25    
Moisture  
Dew Point 28 °F    
Average Humidity 70    
Maximum Humidity 92    
Minimum Humidity 44    
Precipitation  
Precipitation 0.00 in - - ()
Sea Level Pressure  
Sea Level Pressure 29.91 in    
Wind  
Wind Speed 8 mph (WNW)    
Max Wind Speed 18 mph    
Max Gust Speed 23 mph    
Visibility 10 miles    
Events      
Averages and records for this station are not official NWS values.
T = Trace of Precipitation, MM = Missing Value Source: NWS Daily Summary

Daily Weather History Graph

Daily Weather History Graph

Search for Another Location

Airport:

Trip Planner

Search our weather history database for the weather conditions in past years. The results will help you decide how hot, cold, wet, or windy it might be!

Date:

Astronomy

Oct. 27, 2013 Rise Set
Actual Time 7:53 AM CDT 6:13 PM CDT
Civil Twilight 7:22 AM CDT 6:44 PM CDT
Nautical Twilight 6:47 AM CDT 7:18 PM CDT
Astronomical Twilight 6:12 AM CDT 7:53 PM CDT
Moon 12:30 AM CDT (10/27) 2:41 PM CDT (10/27)
Length of Visible Light 11h 21m
Length of Day
10h 20m
Last Quarter, 43% of the Moon is Illuminated
Oct 27
Last Quarter
Nov 3
New
Nov 9
First Quarter
Nov 17
Full
Nov 25
Last Quarter

Hourly Weather History & Observations

Time (CDT) Temp. Windchill Dew Point Humidity Pressure Visibility Wind Dir Wind Speed Gust Speed Precip Events Conditions
12:11 AM 26.8 °F 21.4 °F 24.3 °F 90% 29.98 in 10.0 mi South 4.6 mph - N/A   Clear
12:30 AM 27.5 °F 21.1 °F 25.0 °F 90% 29.97 in 10.0 mi South 5.8 mph - N/A   Clear
12:51 AM 29.8 °F 23.0 °F 26.6 °F 88% 29.96 in 10.0 mi South 6.9 mph - N/A   Scattered Clouds
1:10 AM 30.6 °F 23.8 °F 26.6 °F 85% 29.96 in 10.0 mi South 6.9 mph - N/A   Clear
1:30 AM 29.1 °F 23.0 °F 26.1 °F 88% 29.95 in 10.0 mi South 5.8 mph - N/A   Clear
1:51 AM 28.4 °F 21.2 °F 25.7 °F 90% 29.94 in 10.0 mi South 6.9 mph - N/A   Clear
2:10 AM 27.5 °F 21.1 °F 25.3 °F 92% 29.94 in 10.0 mi South 5.8 mph - N/A   Clear
2:31 AM 27.9 °F 21.5 °F 25.3 °F 90% 29.92 in 10.0 mi South 5.8 mph - N/A   Clear
2:51 AM 27.5 °F 21.1 °F 25.2 °F 91% 29.91 in 10.0 mi South 5.8 mph - N/A   Clear
3:10 AM 27.5 °F 20.2 °F 25.2 °F 91% 29.91 in 10.0 mi South 6.9 mph - N/A   Clear
3:31 AM 27.1 °F 20.7 °F 24.8 °F 91% 29.90 in 10.0 mi South 5.8 mph - N/A   Clear
3:51 AM 27.5 °F 19.3 °F 25.0 °F 90% 29.88 in 10.0 mi South 8.1 mph - N/A   Clear
4:10 AM 27.5 °F 21.1 °F 24.8 °F 90% 29.87 in 10.0 mi South 5.8 mph - N/A   Clear
4:31 AM 26.4 °F 19.8 °F 24.1 °F 91% 29.87 in 10.0 mi South 5.8 mph - N/A   Clear
4:51 AM 27.1 °F 19.7 °F 24.6 °F 90% 29.85 in 10.0 mi South 6.9 mph - N/A   Clear
5:10 AM 27.1 °F 19.7 °F 24.4 °F 90% 29.85 in 10.0 mi South 6.9 mph - N/A   Clear
5:31 AM 27.5 °F 21.1 °F 24.4 °F 88% 29.84 in 10.0 mi South 5.8 mph - N/A   Clear
5:50 AM 28.4 °F 21.2 °F 25.0 °F 87% 29.83 in 10.0 mi South 6.9 mph - N/A   Clear
6:10 AM 28.4 °F 20.4 °F 25.2 °F 88% 29.82 in 10.0 mi South 8.1 mph - N/A   Clear
6:31 AM 28.4 °F 20.4 °F 25.2 °F 88% 29.81 in 10.0 mi South 8.1 mph - N/A   Clear
6:50 AM 28.8 °F 21.7 °F 25.5 °F 88% 29.79 in 10.0 mi South 6.9 mph - N/A   Clear
7:10 AM 30.0 °F 22.4 °F 26.2 °F 86% 29.78 in 10.0 mi SSW 8.1 mph - N/A   Clear
7:30 AM 30.2 °F 23.4 °F 26.1 °F 85% 29.78 in 10.0 mi South 6.9 mph - N/A   Clear
7:50 AM 29.8 °F 26.3 °F 26.2 °F 86% 29.79 in 10.0 mi SSW 3.5 mph - N/A   Clear
8:11 AM 29.8 °F 23.9 °F 25.9 °F 85% 29.79 in 10.0 mi SSW 5.8 mph - N/A   Clear
8:30 AM 29.7 °F 24.7 °F 26.4 °F 88% 29.79 in 10.0 mi SSW 4.6 mph - N/A   Clear
8:50 AM 31.6 °F 27.0 °F 27.5 °F 85% 29.79 in 10.0 mi SSW 4.6 mph - N/A   Clear
9:11 AM 33.8 °F 27.7 °F 28.6 °F 81% 29.79 in 10.0 mi SW 6.9 mph - N/A   Clear
9:30 AM 34.7 °F 28.8 °F 29.3 °F 81% 29.80 in 10.0 mi SW 6.9 mph - N/A   Clear
9:50 AM 36.9 °F 30.1 °F 30.0 °F 76% 29.80 in 10.0 mi SW 9.2 mph - N/A   Clear
10:11 AM 39.0 °F 32.8 °F 29.8 °F 70% 29.80 in 10.0 mi WSW 9.2 mph - N/A   Clear
10:30 AM 41.5 °F 35.0 °F 30.2 °F 64% 29.81 in 10.0 mi West 11.5 mph - N/A   Clear
10:50 AM 43.2 °F 37.0 °F 30.4 °F 61% 29.80 in 10.0 mi West 11.5 mph - N/A   Clear
11:11 AM 44.4 °F 39.0 °F 31.3 °F 60% 29.81 in 10.0 mi West 10.4 mph - N/A   Clear
11:30 AM 45.3 °F 39.7 °F 31.5 °F 58% 29.81 in 10.0 mi NW 11.5 mph - N/A   Clear
11:50 AM 46.4 °F 41.1 °F 31.5 °F 56% 29.82 in 10.0 mi NW 11.5 mph - N/A   Clear
12:10 PM 48.0 °F - 32.0 °F 54% 29.82 in 10.0 mi NNW 11.5 mph - N/A   Clear
12:30 PM 48.4 °F - 32.0 °F 53% 29.82 in 10.0 mi NNW 11.5 mph - N/A   Clear
12:51 PM 49.3 °F - 32.0 °F 51% 29.83 in 10.0 mi NW 10.4 mph - N/A   Clear
1:10 PM 49.8 °F - 32.5 °F 51% 29.83 in 10.0 mi NW 10.4 mph - N/A   Clear
1:30 PM 51.4 °F - 32.5 °F 49% 29.82 in 10.0 mi NW 9.2 mph 17.3 mph N/A   Clear
1:51 PM 52.7 °F - 32.2 °F 46% 29.82 in 10.0 mi NW 11.5 mph - N/A   Clear
2:10 PM 52.9 °F - 32.0 °F 45% 29.82 in 10.0 mi NNW 12.7 mph - N/A   Clear
2:30 PM 54.0 °F - 32.5 °F 44% 29.83 in 10.0 mi North 13.8 mph 19.6 mph N/A   Clear
2:51 PM 53.6 °F - 32.2 °F 44% 29.84 in 10.0 mi NNW 12.7 mph - N/A   Clear
3:10 PM 54.1 °F - 32.5 °F 44% 29.84 in 10.0 mi NNW 12.7 mph 17.3 mph N/A   Clear
3:30 PM 53.6 °F - 32.4 °F 44% 29.85 in 10.0 mi North 13.8 mph - N/A   Clear
3:51 PM 52.3 °F - 32.0 °F 46% 29.86 in 10.0 mi North 12.7 mph - N/A   Clear
4:10 PM 51.8 °F - 31.8 °F 47% 29.88 in 10.0 mi North 15.0 mph 19.6 mph N/A   Clear
4:30 PM 51.8 °F - 32.0 °F 47% 29.89 in 10.0 mi North 12.7 mph 17.3 mph N/A   Clear
4:51 PM 50.9 °F - 31.1 °F 47% 29.90 in 10.0 mi North 15.0 mph 18.4 mph N/A   Clear
5:10 PM 50.0 °F - 30.4 °F 47% 29.92 in 10.0 mi North 15.0 mph 19.6 mph N/A   Clear
5:30 PM 49.1 °F - 30.0 °F 48% 29.93 in 10.0 mi North 12.7 mph 18.4 mph N/A   Clear
5:51 PM 47.5 °F - 29.1 °F 49% 29.94 in 10.0 mi North 15.0 mph 20.7 mph N/A   Clear
6:10 PM 46.0 °F 40.2 °F 28.6 °F 51% 29.96 in 10.0 mi North 12.7 mph 20.7 mph N/A   Clear
6:30 PM 44.1 °F 36.8 °F 28.9 °F 55% 29.98 in 10.0 mi North 16.1 mph 19.6 mph N/A   Clear
6:51 PM 42.3 °F 33.8 °F 29.3 °F 60% 30.00 in 10.0 mi North 18.4 mph 23.0 mph N/A   Clear
7:10 PM 41.2 °F 32.7 °F 28.8 °F 61% 30.02 in 10.0 mi North 17.3 mph 23.0 mph N/A   Clear
7:30 PM 40.1 °F 33.2 °F 28.9 °F 64% 30.03 in 10.0 mi North 11.5 mph - N/A   Clear
7:51 PM 39.2 °F 33.0 °F 28.6 °F 66% 30.05 in 10.0 mi North 9.2 mph - N/A   Clear
8:10 PM 38.8 °F 32.6 °F 28.2 °F 66% 30.06 in 10.0 mi North 9.2 mph - N/A   Clear
8:31 PM 38.8 °F 31.6 °F 27.7 °F 64% 30.07 in 10.0 mi North 11.5 mph - N/A   Clear
8:51 PM 38.5 °F 32.1 °F 27.5 °F 65% 30.09 in 10.0 mi North 9.2 mph - N/A   Clear
9:10 PM 38.3 °F 31.9 °F 27.5 °F 65% 30.09 in 10.0 mi NNE 9.2 mph - N/A   Clear
9:31 PM 38.3 °F 31.9 °F 27.5 °F 65% 30.11 in 10.0 mi NNE 9.2 mph - N/A   Clear
9:50 PM 37.4 °F 32.1 °F 27.5 °F 67% 30.12 in 10.0 mi NNE 6.9 mph - N/A   Clear
10:10 PM 36.5 °F 32.7 °F 27.3 °F 69% 30.13 in 10.0 mi NNE 4.6 mph - N/A   Clear
10:31 PM 35.8 °F 30.9 °F 27.3 °F 71% 30.14 in 10.0 mi NNE 5.8 mph - N/A   Clear
10:50 PM 35.4 °F 30.5 °F 27.3 °F 72% 30.15 in 10.0 mi NNE 5.8 mph - N/A   Clear
11:10 PM 35.6 °F 29.2 °F 27.3 °F 72% 30.16 in 10.0 mi NNE 8.1 mph - N/A   Clear
11:31 PM 35.6 °F 28.0 °F 27.1 °F 71% 30.17 in 10.0 mi NE 10.4 mph 17.3 mph N/A   Clear
11:50 PM 35.1 °F 28.6 °F 26.6 °F 71% 30.18 in 10.0 mi NNE 8.1 mph - N/A   Clear